Starlink 32180

operational
NORAD ID: 60374 Int'l Des: 2024-138 Owner: SPXS Country: US Constellation: starlink
LEOCIRCULAR

Über Starlink 32180

Beschreibung wird geladen...

Live-Position

3D-Globus wird geladen...

Nächste Überflüge

Höhenverlauf

Altitude vs Time

uPlot chart will show altitude changes over time

Zweizeiliger Elementsatz

1 60374U 24138V 25353.20523688 .00001449 00000-0 61043-4 0 9996
2 60374 53.1628 323.5443 0001342 79.8851 280.2301 15.30193893 78305
Epoch: 19. Dez. 2025 • Age: 23 hours

Aktueller Status

Höhe 479.8 km
Geschwindigkeit 7.63 km/s
Subsatellitenpunkt -15.44°S, 5.94°E
Startdatum 4. Aug. 2024
Alter 1.3 years
Typ internet

Technische Details

Klassifizierung Payload
Masse 730.00 kg
Trockenmasse 700.00 kg
Gesamtmasse 730.00 kg
Länge 0.30 m
Durchmesser 4.10 m
Spannweite 29.00 m
Form Box + pan
Hersteller SPXS
Bus-Typ Starlink V2M
Phasenstatus In Orbit
Besitzer/Staat SPXS/US

Große Konstellationen

Loading constellations...